This is the latest recevied weather packets stored in our database for station/object K7CTM. If no packets are shown the sender has not sent any weather packets the latest 10 day(s).
| Time | Temp. | Humidity | Pressure | Rain* | Wind** | Luminosity | Snow |
|---|---|---|---|---|---|---|---|
| 1777842986 | 22.78° C | 22% | 1020.7 hPa | 0 mm | - | 710 W/m² | - |
| 1777842681 | 22.78° C | 22% | 1020.8 hPa | 0 mm | - | 715 W/m² | - |
| 1777842378 | 22.78° C | 24% | 1020.6 hPa | 0 mm | - | 725 W/m² | - |
| 1777842075 | 22.22° C | 24% | 1020.8 hPa | 0 mm | - | 735 W/m² | - |
| 1777841771 | 21.67° C | 26% | 1020.7 hPa | 0 mm | - | 755 W/m² | - |
| 1777841467 | 22.22° C | 25% | 1021 hPa | 0 mm | - | 809 W/m² | - |
| 1777841164 | 22.22° C | 24% | 1020.8 hPa | 0 mm | - | 792 W/m² | - |
| 1777840861 | 21.67° C | 25% | 1021.1 hPa | 0 mm | - | 677 W/m² | - |
| 1777840558 | 21.67° C | 26% | 1021.2 hPa | 0 mm | - | 797 W/m² | - |
| 1777840255 | 22.22° C | 28% | 1021.2 hPa | 0 mm | - | 792 W/m² | - |
| 1777839953 | 21.67° C | 25% | 1021.3 hPa | 0 mm | - | 803 W/m² | - |
| 1777839651 | 22.22° C | 27% | 1021.1 hPa | 0 mm | - | 799 W/m² | - |
| 1777839349 | 22.22° C | 26% | 1021.5 hPa | 0 mm | - | 221 W/m² | - |
| 1777839046 | 21.67° C | 24% | 1021.4 hPa | 0 mm | - | 834 W/m² | - |
| 1777838742 | 22.22° C | 25% | 1021.4 hPa | 0 mm | - | 839 W/m² | - |
| 1777838439 | 21.67° C | 25% | 1021.5 hPa | 0 mm | - | 831 W/m² | - |
| 1777838136 | 21.67° C | 25% | 1021.6 hPa | 0 mm | - | 826 W/m² | - |
| 1777837833 | 21.11° C | 27% | 1021.8 hPa | 0 mm | - | 876 W/m² | - |
| 1777837530 | 21.67° C | 27% | 1021.8 hPa | 0 mm | - | 173 W/m² | - |
| 1777837229 | 21.67° C | 28% | 1022 hPa | 0 mm | - | 664 W/m² | - |
| 1777836927 | 21.67° C | 27% | 1022 hPa | 0 mm | - | 896 W/m² | - |
| 1777836622 | 21.67° C | 28% | 1022.1 hPa | 0 mm | - | 906 W/m² | - |
| 1777836318 | 20.56° C | 29% | 1022.3 hPa | 0 mm | - | 884 W/m² | - |
| 1777836014 | 21.11° C | 28% | 1022.1 hPa | 0 mm | - | 850 W/m² | - |
| 1777835711 | 20.56° C | 31% | 1022.3 hPa | 0 mm | - | 849 W/m² | - |
* Rain latest hour (hover to see other rain measurements)
** Current wind speed in m/s (hover to see current wind gust speed)